Location: Newcastle Observatory
(43.9158°N, 78.5831°W)
Time: 17:35:01
(UTC-04:00)

Amateur Radio Satellites - All Passes

Search period start: 21 October 2014 17:05
Search period end: 22 October 2014 17:05
Location: Newcastle Observatory, 43.9158°N, 78.5831°W

Satellite Date Start Highest point End Downlink Frequencies (MHz)
Time Altitude Azimuth
AO-40 21 Oct 17:09:34 23:34:07 38° 185° (S) 05:08:32 Beacon 2401.320
ISS 21 Oct 17:16:00 17:18:44 23° 352° (N) 17:21:29 145.800 FM
JAS-2 21 Oct 17:17:51 17:23:22 45° 66° (ENE) 17:29:37 435.800 - 435.900 CW/SSB, 435.910 FM
OPAL 21 Oct 17:21:30 17:24:13 15° 92° (E) 17:26:55 ?
Uosat F 21 Oct 17:31:57 17:36:32 36° 263° (W) 17:41:10 435.120 FM
KITSAT 1 21 Oct 17:46:15 17:50:34 15° 352° (N) 17:54:53 435.175 FM
Hamsat 21 Oct 17:54:25 17:58:33 54° 73° (ENE) 18:02:39 145.90 MHz
UOSAT-12 21 Oct 17:55:00 17:58:33 21° 322° (NW) 18:02:09 437.025 FM, 437.400 FM
Saudisat 1A 21 Oct 18:08:49 18:13:09 53° 240° (WSW) 18:17:26 436.775 MHz
AO-7 21 Oct 18:28:21 18:33:50 19° 270° (W) 18:39:21 29.400 - 29.500 MHz
SO-67 21 Oct 18:33:02 18:35:13 16° 67° (ENE) 18:37:23 435.3500 MHz FM
ISS 21 Oct 18:53:21 18:56:12 25° 12° (NNE) 18:59:02 145.800 FM
OPAL 21 Oct 18:58:39 19:03:37 69° 289° (WNW) 19:08:31 ?
STRAND 1 21 Oct 18:59:25 19:02:44 17° 91° (E) 19:06:01 ?
JAS-2 21 Oct 19:03:39 19:08:42 30° 268° (W) 19:14:19 435.800 - 435.900 CW/SSB, 435.910 FM
HO-68 21 Oct 19:21:24 19:25:41 17° 51° (NE) 19:29:59 435.675 MHz FM
Hamsat 21 Oct 19:32:39 19:34:49 14° 270° (W) 19:37:00 145.90 MHz
KITSAT 1 21 Oct 19:44:15 19:49:49 19° 23° (NNE) 19:55:21 435.175 FM
SO-67 21 Oct 20:04:51 20:07:57 31° 263° (W) 20:11:04 435.3500 MHz FM
ISS 21 Oct 20:29:55 20:33:16 81° 30° (NNE) 20:36:36 145.800 FM
STRAND 1 21 Oct 20:37:15 20:42:21 63° 288° (WNW) 20:47:26 ?
OPAL 21 Oct 20:40:58 20:41:34 10° 308° (NW) 20:42:11 ?
UKube-1 21 Oct 20:49:29 20:52:14 17° 62° (ENE) 20:55:00 145.840 MHz, 145.915 MHz
HO-68 21 Oct 21:05:07 21:12:15 76° 71° (ENE) 21:19:27 435.675 MHz FM
SO-50 21 Oct 21:19:50 21:23:08 18° 36° (NE) 21:26:26 436.795 FM
RS-15 21 Oct 21:21:07 21:26:56 16° 97° (E) 21:32:42 29.354 - 29.394 USB, Beacon 29.352 USB
FUNcube-1 21 Oct 21:23:14 21:25:49 15° 62° (ENE) 21:28:23 145.950 - 145.970 MHz USB
Oscar 11 21 Oct 21:32:44 21:36:44 37° 70° (ENE) 21:40:44 145.825 FM, Beacon 2401.500 USB
KITSAT 1 21 Oct 21:39:25 21:47:19 53° 49° (NE) 21:55:09 435.175 FM
ISS 21 Oct 22:07:41 22:09:33 14° 228° (SW) 22:11:26 145.800 FM
ZACube-1 21 Oct 22:11:44 22:16:05 43° 71° (ENE) 22:20:24 437.345 MHz
UKube-1 21 Oct 22:23:46 22:28:01 53° 259° (W) 22:32:18 145.840 MHz, 145.915 MHz
HO-68 21 Oct 22:55:29 23:00:39 21° 269° (W) 23:05:53 435.675 MHz FM
FUNcube-1 21 Oct 22:57:06 23:01:40 66° 259° (WSW) 23:06:13 145.950 - 145.970 MHz USB
SO-50 21 Oct 22:59:30 23:04:22 89° 56° (NE) 23:09:16 436.795 FM
UOSAT-12 21 Oct 23:02:30 23:05:38 17° 35° (NE) 23:08:44 437.025 FM, 437.400 FM
Oscar 11 21 Oct 23:09:44 23:13:02 21° 267° (W) 23:16:20 145.825 FM, Beacon 2401.500 USB
RS-15 21 Oct 23:26:15 23:37:09 72° 118° (ESE) 23:48:00 29.354 - 29.394 USB, Beacon 29.352 USB
KITSAT 1 21 Oct 23:35:10 23:42:32 41° 250° (WSW) 23:49:53 435.175 FM
ZACube-1 21 Oct 23:49:14 23:52:39 20° 267° (W) 23:56:04 437.345 MHz
UOSAT-12 22 Oct 00:41:44 00:46:30 87° 56° (ENE) 00:51:09 437.025 FM, 437.400 FM
SO-50 22 Oct 00:42:17 00:44:14 12° 253° (WSW) 00:46:12 436.795 FM
MaSat-1 22 Oct 01:08:36 01:12:50 80° 116° (ESE) 01:16:41 437.345 MHz
RS-15 22 Oct 01:40:11 01:50:21 42° 324° (NW) 02:00:37 29.354 - 29.394 USB, Beacon 29.352 USB
Oscar 16 22 Oct 01:56:12 02:00:17 23° 93° (E) 02:04:19 437.025 USB, Beacon 2401.1428
Uribyol 2 22 Oct 02:11:03 02:13:36 14° 89° (E) 02:16:09 436.500 FM
ITAMSAT 1 22 Oct 02:16:02 02:18:49 14° 89° (E) 02:21:35 435.822 SSB
AO-Echo 22 Oct 02:17:45 02:21:41 21° 92° (E) 02:25:36 ?
UOSAT-12 22 Oct 02:24:12 02:25:55 12° 253° (WSW) 02:27:37 437.025 FM, 437.400 FM
JAS-1B 22 Oct 02:45:20 02:51:40 55° 101° (ESE) 02:59:10 435.800 - 435.900 CW/SSB
MaSat-1 22 Oct 02:47:18 02:48:57 12° 311° (NW) 02:50:33 437.345 MHz
Oscar 19 22 Oct 02:49:32 02:54:39 71° 102° (ESE) 02:59:45 437.125 CW, 437.150 USB
AO-27 22 Oct 02:59:14 03:04:05 37° 97° (E) 03:08:52 436.795 MHz FM
Oscar 16 22 Oct 03:34:57 03:39:50 45° 291° (WNW) 03:44:41 437.025 USB, Beacon 2401.1428
Uribyol 2 22 Oct 03:48:27 03:53:41 78° 286° (WNW) 03:58:52 436.500 FM
ITAMSAT 1 22 Oct 03:53:38 03:58:53 75° 287° (WNW) 04:04:05 435.822 SSB
Gurwin Techsat 1B 22 Oct 03:54:33 03:59:51 62° 101° (ESE) 04:05:06 435.225 FM
AO-Echo 22 Oct 03:55:35 04:00:45 55° 289° (WNW) 04:05:56 ?
PCSat 22 Oct 03:56:19 03:59:45 17° 105° (ESE) 04:03:12 145.825 MHz
RS-15 22 Oct 03:58:09 04:06:42 25° 358° (N) 04:15:24 29.354 - 29.394 USB, Beacon 29.352 USB
TMSAT-1 22 Oct 04:07:55 04:13:11 61° 101° (E) 04:18:25 436.925 FM
Oscar 19 22 Oct 04:30:15 04:33:25 17° 300° (WNW) 04:36:35 437.125 CW, 437.150 USB
AO-7 22 Oct 04:32:21 04:39:16 28° 94° (E) 04:46:08 29.400 - 29.500 MHz
JAS-1B 22 Oct 04:36:46 04:42:06 29° 296° (WNW) 04:48:11 435.800 - 435.900 CW/SSB
OPAL 22 Oct 04:36:47 04:41:23 34° 64° (ENE) 04:45:56 ?
AO-27 22 Oct 04:38:56 04:43:29 31° 295° (WNW) 04:48:00 436.795 MHz FM
Sapphire 22 Oct 05:14:14 05:19:36 72° 118° (ESE) 05:25:01 437.095 MHz 1200 baud AX-25 AFSK
Uribyol 2 22 Oct 05:30:25 05:32:17 12° 304° (NW) 05:34:09 436.500 FM
Gurwin Techsat 1B 22 Oct 05:35:35 05:39:20 20° 299° (WNW) 05:43:05 435.225 FM
ITAMSAT 1 22 Oct 05:35:49 05:37:28 11° 305° (NW) 05:39:06 435.822 SSB
PCSat 22 Oct 05:37:09 05:42:33 72° 303° (WNW) 05:48:00 145.825 MHz
Uosat F 22 Oct 05:37:38 05:42:40 63° 102° (ESE) 05:47:39 435.120 FM
TMSAT-1 22 Oct 05:48:51 05:52:38 20° 299° (WNW) 05:56:24 436.925 FM
JAS-2 22 Oct 06:09:10 06:16:25 43° 96° (E) 06:23:46 435.800 - 435.900 CW/SSB, 435.910 FM
RS-15 22 Oct 06:13:15 06:23:20 38° 32° (NNE) 06:33:43 29.354 - 29.394 USB, Beacon 29.352 USB
OPAL 22 Oct 06:15:35 06:20:13 33° 261° (W) 06:24:50 ?
STRAND 1 22 Oct 06:16:22 06:20:44 29° 65° (ENE) 06:25:08 ?
AO-7 22 Oct 06:24:24 06:32:38 69° 293° (WNW) 06:40:52 29.400 - 29.500 MHz
Sapphire 22 Oct 06:59:23 07:03:35 22° 318° (NW) 07:07:48 437.095 MHz 1200 baud AX-25 AFSK
Hamsat 22 Oct 07:14:18 07:18:30 87° 282° (WNW) 07:22:43 145.90 MHz
Uosat F 22 Oct 07:17:34 07:20:58 18° 299° (WNW) 07:24:21 435.120 FM
PCSat 22 Oct 07:23:42 07:26:58 16° 324° (NW) 07:30:14 145.825 MHz
SO-67 22 Oct 07:27:25 07:29:28 15° 92° (E) 07:31:30 435.3500 MHz FM
JAS-2 22 Oct 07:54:12 08:01:24 47° 293° (WNW) 08:08:46 435.800 - 435.900 CW/SSB, 435.910 FM
STRAND 1 22 Oct 07:55:03 07:59:47 38° 263° (W) 08:04:35 ?
Saudisat 1A 22 Oct 08:16:48 08:20:30 27° 115° (ESE) 08:24:14 436.775 MHz
AO-7 22 Oct 08:18:56 08:23:58 18° 315° (NW) 08:29:01 29.400 - 29.500 MHz
RS-15 22 Oct 08:25:50 08:37:01 84° 239° (WSW) 08:48:41 29.354 - 29.394 USB, Beacon 29.352 USB
HO-68 22 Oct 08:34:37 08:37:04 12° 85° (E) 08:39:29 435.675 MHz FM
SO-67 22 Oct 08:59:26 09:02:34 32° 288° (WNW) 09:05:40 435.3500 MHz FM
MaSat-1 22 Oct 09:19:50 09:21:04 12° 49° (NE) 09:22:14 437.345 MHz
JAS-2 22 Oct 09:43:06 09:44:40 11° 313° (NW) 09:46:15 435.800 - 435.900 CW/SSB, 435.910 FM
Saudisat 1A 22 Oct 09:55:51 09:59:56 37° 313° (NW) 10:04:04 436.775 MHz
UKube-1 22 Oct 10:11:01 10:14:30 23° 95° (E) 10:17:58 145.840 MHz, 145.915 MHz
HO-68 22 Oct 10:18:48 10:26:01 70° 104° (ESE) 10:33:10 435.675 MHz FM
RS-15 22 Oct 10:40:01 10:47:45 22° 260° (W) 10:55:44 29.354 - 29.394 USB, Beacon 29.352 USB
FUNcube-1 22 Oct 10:45:45 10:49:01 21° 93° (E) 10:52:13 145.950 - 145.970 MHz USB
Oscar 11 22 Oct 10:54:36 10:58:54 63° 101° (E) 11:03:09 145.825 FM, Beacon 2401.500 USB
MaSat-1 22 Oct 10:54:39 10:56:53 24° 251° (WSW) 10:58:58 437.345 MHz
ZACube-1 22 Oct 11:35:49 11:40:08 75° 102° (ESE) 11:44:19 437.345 MHz
UKube-1 22 Oct 11:46:47 11:50:46 35° 291° (WNW) 11:54:44 145.840 MHz, 145.915 MHz
HO-68 22 Oct 12:07:25 12:13:07 26° 303° (WNW) 12:18:48 435.675 MHz FM
KITSAT 1 22 Oct 12:10:39 12:17:06 27° 105° (ESE) 12:23:33 435.175 FM
Sapphire 22 Oct 12:18:33 12:21:59 17° 37° (NE) 12:25:24 437.095 MHz 1200 baud AX-25 AFSK
FUNcube-1 22 Oct 12:21:35 12:25:32 35° 290° (WNW) 12:29:22 145.950 - 145.970 MHz USB
Oscar 19 22 Oct 12:31:01 12:34:12 17° 60° (ENE) 12:37:24 437.125 CW, 437.150 USB
Oscar 11 22 Oct 12:32:21 12:34:34 14° 298° (WNW) 12:36:48 145.825 FM, Beacon 2401.500 USB
PCSat 22 Oct 12:40:59 12:45:19 24° 43° (NE) 12:49:37 145.825 MHz
Oscar 16 22 Oct 13:14:19 13:19:06 40° 68° (ENE) 13:23:53 437.025 USB, Beacon 2401.1428
ZACube-1 22 Oct 13:14:21 13:15:54 12° 300° (WNW) 13:17:25 437.345 MHz
ISS 22 Oct 13:14:57 13:16:16 12° 131° (SE) 13:17:36 145.800 FM
SO-50 22 Oct 13:16:59 13:20:16 20° 111° (ESE) 13:23:36 436.795 FM
Uribyol 2 22 Oct 13:29:36 13:33:49 26° 63° (ENE) 13:38:03 436.500 FM
AO-Echo 22 Oct 13:32:07 13:36:16 29° 65° (ENE) 13:40:33 ?
JAS-1B 22 Oct 13:33:38 13:39:23 49° 69° (ENE) 13:44:49 435.800 - 435.900 CW/SSB
ITAMSAT 1 22 Oct 13:34:50 13:39:07 27° 64° (ENE) 13:43:25 435.822 SSB
Gurwin Techsat 1B 22 Oct 13:39:52 13:43:06 17° 59° (ENE) 13:46:20 435.225 FM
AO-7 22 Oct 13:47:22 13:49:44 12° 38° (NE) 13:52:06 29.400 - 29.500 MHz
TMSAT-1 22 Oct 13:53:00 13:56:09 16° 59° (ENE) 13:59:18 436.925 FM
Sapphire 22 Oct 14:00:53 14:06:21 76° 58° (ENE) 14:11:46 437.095 MHz 1200 baud AX-25 AFSK
KITSAT 1 22 Oct 14:03:43 14:11:47 73° 305° (NW) 14:19:54 435.175 FM
Oscar 19 22 Oct 14:07:50 14:12:58 71° 257° (WSW) 14:18:08 437.125 CW, 437.150 USB
AO-27 22 Oct 14:18:39 14:23:47 64° 72° (ENE) 14:28:58 436.795 MHz FM
PCSat 22 Oct 14:23:49 14:29:13 67° 243° (WSW) 14:34:35 145.825 MHz
ISS 22 Oct 14:49:09 14:52:29 86° 146° (SE) 14:55:50 145.800 FM
Oscar 16 22 Oct 14:54:11 14:58:33 27° 265° (W) 15:02:55 437.025 USB, Beacon 2401.1428
UOSAT-12 22 Oct 14:55:29 14:58:42 19° 111° (ESE) 15:01:58 437.025 FM, 437.400 FM
SO-50 22 Oct 14:56:01 15:00:25 51° 310° (NW) 15:04:59 436.795 FM
Oscar 10/S400 22 Oct 14:58:01 15:15:00 39° 155° (SSE) 15:41:59 145.825 - 145.975 CW/USB, Beacon 145.810 USB
Uribyol 2 22 Oct 15:08:03 15:13:02 45° 261° (W) 15:18:04 436.500 FM
AO-Echo 22 Oct 15:10:29 15:14:55 35° 264° (W) 15:19:31 ?
ITAMSAT 1 22 Oct 15:13:27 15:18:23 43° 261° (W) 15:23:22 435.822 SSB
Uosat F 22 Oct 15:16:34 15:19:10 14° 58° (ENE) 15:21:47 435.120 FM
Gurwin Techsat 1B 22 Oct 15:17:07 15:22:26 76° 257° (WSW) 15:27:46 435.225 FM
JAS-1B 22 Oct 15:25:41 15:30:23 23° 266° (W) 15:34:53 435.800 - 435.900 CW/SSB
TMSAT-1 22 Oct 15:30:07 15:35:25 78° 257° (WSW) 15:40:45 436.925 FM
AO-7 22 Oct 15:32:43 15:40:24 45° 61° (ENE) 15:48:06 29.400 - 29.500 MHz
Sapphire 22 Oct 15:45:52 15:49:05 16° 256° (WSW) 15:52:18 437.095 MHz 1200 baud AX-25 AFSK
AO-27 22 Oct 16:00:25 16:03:45 17° 269° (W) 16:07:07 436.795 MHz FM
KITSAT 1 22 Oct 16:02:25 16:08:42 24° 330° (NNW) 16:15:00 435.175 FM
JAS-2 22 Oct 16:24:57 16:29:09 20° 55° (NE) 16:33:41 435.800 - 435.900 CW/SSB, 435.910 FM
ISS 22 Oct 16:26:37 16:29:30 26° 346° (NNW) 16:32:24 145.800 FM
UOSAT-12 22 Oct 16:33:50 16:38:25 58° 309° (NW) 16:43:06 437.025 FM, 437.400 FM
SO-50 22 Oct 16:40:19 16:42:06 12° 332° (NNW) 16:43:55 436.795 FM
Saudisat 1A 22 Oct 16:41:32 16:45:38 36° 47° (NE) 16:49:43 436.775 MHz
Uosat F 22 Oct 16:52:14 16:57:16 83° 256° (WSW) 17:02:20 435.120 FM
